Location: Borgo
(42.3939°N, 9.2791°E)
Time: 01:14:57
(UTC+00:00)

Helios 1A Rocket - Pass Details

Date: 24 January 2021
Orbit: 562 x 586 km, 98.3° (Epoch: 08 March)

Event Time Altitude Azimuth Distance (km) Brightness Sun altitude
Rises 18:45:59 0° 184° (S) 2,795 6.5 -25.6°
Reaches altitude 10° 18:48:14 10° 192° (SSW) 1,902 5.7 -26.0°
Maximum altitude 18:52:06 38° 261° (W) 896 4.3 -26.7°
Drops below altitude 10° 18:56:00 10° 331° (NNW) 1,918 5.9 -27.5°
Sets 18:58:18 0° 339° (NNW) 2,823 6.7 -27.9°
